Погода в Таловке

Россия / Камчатский край     62°03′02″N   166°42′00″E
темп.,
°C
ветер,
м/с
пор.,
м/с
влажн.,
%
обл.,
%
осадки,
мм/ч
давл.,
гПа
погр.,
м
2 декабря, чт
чт200:00−25вюв0110080 0.1 10179
03:00−25ссз00100100 0.1 10199
06:00−24св11100100 0.1 10209
09:00−22ссв339999 0.1 102150
12:00−20ссв5798100 0.1 1019146
15:00−19ссв710100100 0.4 1013220
18:00−18с71197100 2.3 1007225
21:00−14ссв81099100 2.1 999293
3 декабря, пт
пт300:00−2вюв61587100 4.0 991543
03:00+2юв142484100 0.8 983790
06:00+2юв162684100 1.5 976787
09:00+2юв122185100 0.6 970578
12:00−11с4599100 2.6 972109
15:00−11з2397100 2.9 974128
18:00−9з3591100 4.1 979112
21:00−12ююз4787100 0.0 98583
4 декабря, сб
сб400:00−11зюз71193100 0.1 990365
03:00−16юз338493 0.0 99623
06:00−21з239955 0.0 100162
09:00−24юз1110078 0.0 100510
12:00−28з119712 0.0 10089
15:00−28ю229711 0.0 101212
18:00−32ю119783 0.0 10159
21:00−34св22969 0.0 10159
5 декабря, вс
вс500:00−31ссв459096 0.0 101291
03:00−29с5884100 0.0 1009185
06:00−30с6998100 0.3 1005232
09:00−29с5999100 1.4 1001258
12:00−27ссв61099100 2.9 998277
15:00−25ссв61099100 2.3 993321
18:00−25с61099100 4.9 990347
21:00−25с4899100 2.5 990414
6 декабря, пн
пн600:00−25с3699100 5.6 990476
03:00−24с3999100 1.6 990671
06:00−23с2799100 2.3 990537
09:00−23с1399100 0.4 992150
12:00−23зюз0099100 0.7 99470
15:00−22юз2299100 0.3 99595
18:00−22ююз229894 0.4 99748
21:00−23ююз239897 0.0 99955